VOI1713 KLAX-MMGL

Flight info

Callsign VOI1713
Flight time 2h 41m
Altitude 37000
Route PNDAH2 OTAYY DCT TIJ UT4 ANTEL DCT SOUSY DCT AMULA AMULA1B
Aircraft A21N/M-SDE3FGHIRWY/LB1

Departure

Time 2026-04-23 13:46
Airport Los Angeles International Airport (KLAX)

Arrival

Time 2026-04-23 16:27
Airport Guadalajara International Airport (MMGL)
Time Latitude Longitude Altitude Speed Heading
2026-04-23 13:20 33.94437 -118.41466 123 ft 0 kts 263°
2026-04-23 13:33 33.94437 -118.41463 123 ft 2 kts 263°
2026-04-23 13:33 33.94439 -118.41444 123 ft 2 kts 263°
2026-04-23 13:33 33.94441 -118.41427 123 ft 2 kts 263°
2026-04-23 13:33 33.94443 -118.41409 123 ft 2 kts 263°
2026-04-23 13:34 33.94444 -118.41398 123 ft 2 kts 263°
2026-04-23 13:34 33.94449 -118.41380 123 ft 2 kts 237°
2026-04-23 13:34 33.94458 -118.41367 123 ft 2 kts 219°
2026-04-23 13:34 33.94471 -118.41357 123 ft 2 kts 199°
2026-04-23 13:35 33.94485 -118.41354 123 ft 1 kts 179°
2026-04-23 13:35 33.94492 -118.41355 123 ft 1 kts 170°
2026-04-23 13:35 33.94495 -118.41356 123 ft 0 kts 172°
2026-04-23 13:37 33.94483 -118.41354 123 ft 3 kts 172°
2026-04-23 13:37 33.94449 -118.41348 123 ft 6 kts 173°
2026-04-23 13:38 33.94393 -118.41340 123 ft 9 kts 173°
2026-04-23 13:38 33.94318 -118.41331 124 ft 12 kts 175°
2026-04-23 13:38 33.94228 -118.41321 124 ft 14 kts 174°
2026-04-23 13:38 33.94121 -118.41308 125 ft 15 kts 172°
2026-04-23 13:39 33.94008 -118.41283 125 ft 17 kts 174°
2026-04-23 13:39 33.93889 -118.41267 126 ft 16 kts 173°
2026-04-23 13:39 33.93856 -118.41261 126 ft 2 kts 173°
2026-04-23 13:39 33.93828 -118.41258 126 ft 5 kts 173°
2026-04-23 13:40 33.93780 -118.41250 127 ft 8 kts 171°
2026-04-23 13:40 33.93744 -118.41192 127 ft 10 kts 105°
2026-04-23 13:40 33.93759 -118.41120 127 ft 9 kts 74°
2026-04-23 13:40 33.93773 -118.41035 128 ft 11 kts 81°
2026-04-23 13:41 33.93785 -118.40935 127 ft 11 kts 83°
2026-04-23 13:41 33.93796 -118.40825 127 ft 14 kts 83°
2026-04-23 13:41 33.93811 -118.40693 126 ft 17 kts 83°
2026-04-23 13:41 33.93824 -118.40552 125 ft 18 kts 84°
2026-04-23 13:42 33.93839 -118.40394 124 ft 20 kts 83°
2026-04-23 13:42 33.93857 -118.40216 121 ft 22 kts 83°
2026-04-23 13:42 33.93878 -118.40018 119 ft 24 kts 83°
2026-04-23 13:42 33.93898 -118.39822 116 ft 23 kts 83°
2026-04-23 13:43 33.93921 -118.39624 113 ft 24 kts 82°
2026-04-23 13:43 33.93937 -118.39428 111 ft 23 kts 83°
2026-04-23 13:43 33.93959 -118.39224 109 ft 25 kts 82°
2026-04-23 13:43 33.93979 -118.39012 107 ft 25 kts 85°
2026-04-23 13:44 33.93995 -118.38793 106 ft 26 kts 84°
2026-04-23 13:44 33.94019 -118.38573 105 ft 26 kts 83°
2026-04-23 13:44 33.94035 -118.38378 104 ft 18 kts 98°
2026-04-23 13:44 33.93953 -118.38358 104 ft 9 kts 274°
2026-04-23 13:45 33.93947 -118.38403 104 ft 6 kts 261°
2026-04-23 13:45 33.93936 -118.38517 104 ft 39 kts 262°
2026-04-23 13:45 33.93870 -118.39146 108 ft 108 kts 263°
2026-04-23 13:45 33.93753 -118.40282 123 ft 163 kts 262°
2026-04-23 13:46 33.93589 -118.41742 423 ft 183 kts 263°
2026-04-23 13:46 33.93420 -118.43245 1130 ft 181 kts 264°
2026-04-23 13:46 33.93275 -118.44720 1858 ft 180 kts 264°
2026-04-23 13:46 33.92923 -118.46207 2336 ft 194 kts 243°
2026-04-23 13:47 33.92132 -118.47576 2661 ft 208 kts 233°
2026-04-23 13:47 33.91178 -118.49001 2954 ft 225 kts 232°
2026-04-23 13:47 33.90130 -118.50493 3239 ft 245 kts 230°
2026-04-23 13:47 33.88972 -118.52103 3605 ft 262 kts 230°
2026-04-23 13:48 33.87758 -118.53804 4157 ft 272 kts 231°
2026-04-23 13:48 33.86413 -118.55403 4859 ft 277 kts 213°
2026-04-23 13:48 33.84589 -118.56094 5566 ft 281 kts 182°
2026-04-23 13:48 33.82672 -118.55738 6309 ft 282 kts 166°
2026-04-23 13:49 33.80779 -118.55160 6969 ft 287 kts 166°
2026-04-23 13:49 33.78821 -118.54576 7606 ft 293 kts 168°
2026-04-23 13:49 33.76817 -118.54008 8276 ft 298 kts 169°
2026-04-23 13:49 33.74795 -118.53454 8967 ft 301 kts 170°
2026-04-23 13:50 33.72737 -118.52896 9612 ft 306 kts 171°
2026-04-23 13:50 33.70665 -118.52175 10205 ft 315 kts 156°
2026-04-23 13:50 33.68933 -118.50507 10532 ft 333 kts 127°
2026-04-23 13:50 33.67795 -118.48043 10864 ft 348 kts 116°
2026-04-23 13:51 33.66714 -118.45354 11131 ft 364 kts 116°
2026-04-23 13:51 33.65586 -118.42597 11438 ft 378 kts 117°
2026-04-23 13:51 33.64402 -118.39767 11961 ft 384 kts 117°
2026-04-23 13:51 33.63175 -118.36877 12541 ft 388 kts 118°
2026-04-23 13:52 33.61955 -118.34030 13108 ft 392 kts 118°
2026-04-23 13:52 33.60684 -118.31080 13660 ft 396 kts 118°
2026-04-23 13:52 33.59418 -118.28149 14206 ft 400 kts 119°
2026-04-23 13:52 33.58141 -118.25191 14738 ft 403 kts 119°
2026-04-23 13:53 33.56847 -118.22204 15264 ft 407 kts 119°
2026-04-23 13:53 33.55545 -118.19193 15751 ft 411 kts 120°
2026-04-23 13:53 33.54221 -118.16140 16270 ft 414 kts 120°
2026-04-23 13:53 33.52905 -118.13097 16770 ft 417 kts 119°
2026-04-23 13:54 33.51574 -118.10003 17240 ft 421 kts 119°
2026-04-23 13:54 33.50224 -118.06863 17691 ft 425 kts 119°
2026-04-23 13:54 33.48867 -118.03710 18164 ft 427 kts 120°
2026-04-23 13:54 33.47402 -118.00621 18609 ft 428 kts 126°
2026-04-23 13:55 33.45583 -117.97804 19078 ft 426 kts 136°
2026-04-23 13:55 33.43481 -117.95345 19536 ft 425 kts 142°
2026-04-23 13:55 33.41242 -117.92979 19923 ft 427 kts 143°
2026-04-23 13:55 33.38995 -117.90642 20026 ft 427 kts 143°
2026-04-23 13:56 33.36780 -117.88330 20028 ft 425 kts 143°
2026-04-23 13:56 33.34549 -117.85991 20029 ft 425 kts 143°
2026-04-23 13:56 33.32332 -117.83653 20031 ft 425 kts 143°
2026-04-23 13:56 33.30127 -117.81322 20030 ft 424 kts 143°
2026-04-23 13:57 33.27917 -117.78984 20032 ft 425 kts 143°
2026-04-23 13:57 33.25707 -117.76646 20029 ft 425 kts 143°
2026-04-23 13:57 33.23503 -117.74318 20023 ft 425 kts 143°
2026-04-23 13:57 33.21302 -117.71992 20023 ft 425 kts 142°
2026-04-23 13:58 33.19075 -117.69643 20026 ft 425 kts 143°
2026-04-23 13:58 33.16854 -117.67299 20024 ft 425 kts 143°
2026-04-23 13:58 33.14654 -117.64936 20026 ft 425 kts 141°
2026-04-23 13:58 33.12496 -117.62540 20027 ft 426 kts 141°
2026-04-23 13:59 33.10355 -117.60140 20030 ft 425 kts 141°
2026-04-23 13:59 33.08182 -117.57707 20032 ft 424 kts 141°
2026-04-23 13:59 33.06041 -117.55318 20036 ft 425 kts 141°
2026-04-23 13:59 33.03870 -117.52901 20033 ft 424 kts 141°
2026-04-23 14:00 33.01733 -117.50526 20038 ft 425 kts 141°
2026-04-23 14:00 32.99568 -117.48119 20048 ft 425 kts 141°
2026-04-23 14:00 32.97394 -117.45710 20039 ft 425 kts 141°
2026-04-23 14:00 32.95248 -117.43330 20036 ft 424 kts 141°
2026-04-23 14:01 32.93064 -117.40912 20049 ft 424 kts 141°
2026-04-23 14:01 32.90929 -117.38549 20049 ft 425 kts 141°
2026-04-23 14:01 32.88761 -117.36151 20051 ft 424 kts 141°
2026-04-23 14:01 32.86594 -117.33759 20049 ft 424 kts 141°
2026-04-23 14:02 32.84436 -117.31374 20051 ft 424 kts 141°
2026-04-23 14:02 32.82261 -117.28973 20050 ft 424 kts 142°
2026-04-23 14:02 32.80104 -117.26595 20051 ft 424 kts 142°
2026-04-23 14:02 32.77964 -117.24237 20050 ft 424 kts 142°
2026-04-23 14:03 32.75793 -117.21845 20051 ft 423 kts 141°
2026-04-23 14:03 32.73642 -117.19479 20055 ft 424 kts 141°
2026-04-23 14:03 32.71480 -117.17100 20053 ft 424 kts 142°
2026-04-23 14:03 32.69304 -117.14707 20056 ft 425 kts 142°
2026-04-23 14:04 32.67163 -117.12332 20051 ft 425 kts 140°
2026-04-23 14:04 32.65081 -117.09792 20054 ft 427 kts 136°
2026-04-23 14:04 32.63093 -117.07192 20052 ft 427 kts 136°
2026-04-23 14:04 32.61121 -117.04588 20049 ft 428 kts 136°
2026-04-23 14:05 32.59127 -117.01962 20051 ft 427 kts 136°
2026-04-23 14:05 32.57148 -116.99359 20051 ft 427 kts 136°
2026-04-23 14:05 32.55167 -116.96761 20053 ft 427 kts 136°
2026-04-23 14:05 32.53148 -116.94130 20050 ft 427 kts 136°
2026-04-23 14:06 32.51150 -116.91571 20052 ft 427 kts 137°
2026-04-23 14:06 32.49108 -116.88978 20053 ft 427 kts 137°
2026-04-23 14:06 32.47094 -116.86420 20051 ft 426 kts 137°
2026-04-23 14:06 32.45085 -116.83865 20047 ft 426 kts 136°
2026-04-23 14:07 32.43054 -116.81284 20037 ft 427 kts 137°
2026-04-23 14:07 32.39032 -116.76170 20026 ft 426 kts 136°
2026-04-23 14:07 32.36987 -116.73574 20025 ft 426 kts 137°
2026-04-23 14:08 32.34979 -116.71025 20043 ft 427 kts 136°
2026-04-23 14:08 32.32960 -116.68463 20036 ft 427 kts 137°
2026-04-23 14:08 32.30926 -116.65885 20037 ft 427 kts 136°
2026-04-23 14:08 32.28900 -116.63316 20036 ft 427 kts 136°
2026-04-23 14:09 32.26889 -116.60773 20036 ft 426 kts 136°
2026-04-23 14:09 32.24882 -116.58232 20024 ft 426 kts 136°
2026-04-23 14:09 32.22847 -116.55660 20068 ft 428 kts 137°
2026-04-23 14:09 32.20800 -116.53077 20360 ft 433 kts 136°
2026-04-23 14:10 32.18739 -116.50474 20862 ft 433 kts 137°
2026-04-23 14:10 32.16687 -116.47887 21318 ft 434 kts 137°
2026-04-23 14:10 32.14612 -116.45274 21744 ft 436 kts 137°
2026-04-23 14:10 32.12555 -116.42688 22144 ft 438 kts 137°
2026-04-23 14:11 32.10450 -116.40038 22514 ft 441 kts 137°
2026-04-23 14:11 32.08365 -116.37422 22904 ft 443 kts 137°
2026-04-23 14:11 32.06261 -116.34779 23255 ft 446 kts 138°
2026-04-23 14:11 32.04114 -116.32081 23611 ft 447 kts 138°
2026-04-23 14:12 32.01997 -116.29424 23979 ft 449 kts 138°
2026-04-23 14:12 31.99868 -116.26756 24326 ft 451 kts 138°
2026-04-23 14:12 31.97714 -116.24056 24658 ft 453 kts 139°
2026-04-23 14:12 31.95552 -116.21350 24985 ft 454 kts 139°
2026-04-23 14:13 31.93379 -116.18636 25284 ft 457 kts 139°
2026-04-23 14:13 31.91217 -116.15933 25574 ft 460 kts 139°
2026-04-23 14:13 31.88988 -116.13152 25875 ft 462 kts 139°
2026-04-23 14:13 31.86797 -116.10414 26158 ft 464 kts 140°
2026-04-23 14:14 31.84586 -116.07655 26450 ft 466 kts 140°
2026-04-23 14:14 31.82368 -116.04893 26738 ft 467 kts 140°
2026-04-23 14:14 31.80117 -116.02089 27037 ft 469 kts 140°
2026-04-23 14:14 31.77876 -115.99303 27297 ft 471 kts 140°
2026-04-23 14:15 31.75640 -115.96526 27516 ft 474 kts 140°
2026-04-23 14:15 31.73369 -115.93705 27770 ft 476 kts 140°
2026-04-23 14:15 31.71088 -115.90877 28006 ft 478 kts 140°
2026-04-23 14:15 31.68792 -115.88032 28295 ft 479 kts 140°
2026-04-23 14:16 31.66524 -115.85220 28558 ft 481 kts 140°
2026-04-23 14:16 31.64208 -115.82355 28791 ft 483 kts 141°
2026-04-23 14:16 31.61913 -115.79517 29036 ft 485 kts 141°
2026-04-23 14:16 31.59594 -115.76653 29280 ft 487 kts 141°
2026-04-23 14:17 31.57256 -115.73766 29579 ft 487 kts 141°
2026-04-23 14:17 31.54932 -115.70895 29890 ft 488 kts 141°
2026-04-23 14:17 31.52596 -115.68012 30194 ft 488 kts 141°
2026-04-23 14:17 31.50247 -115.65117 30481 ft 489 kts 141°
2026-04-23 14:18 31.47920 -115.62253 30780 ft 490 kts 142°
2026-04-23 14:18 31.45559 -115.59349 31092 ft 490 kts 142°
2026-04-23 14:18 31.43209 -115.56459 31398 ft 490 kts 142°
2026-04-23 14:18 31.40888 -115.53606 31770 ft 489 kts 143°
2026-04-23 14:19 31.38524 -115.50702 32110 ft 488 kts 143°
2026-04-23 14:19 31.36199 -115.47853 32374 ft 490 kts 143°
2026-04-23 14:19 31.33839 -115.44963 32641 ft 491 kts 143°
2026-04-23 14:19 31.31480 -115.42077 32929 ft 491 kts 143°
2026-04-23 14:20 31.29116 -115.39186 33181 ft 493 kts 143°
2026-04-23 14:20 31.26754 -115.36298 33481 ft 493 kts 144°
2026-04-23 14:20 31.24411 -115.33434 33823 ft 492 kts 144°
2026-04-23 14:20 31.22036 -115.30535 34135 ft 491 kts 145°
2026-04-23 14:21 31.19669 -115.27650 34458 ft 490 kts 144°
2026-04-23 14:21 31.17330 -115.24798 34718 ft 491 kts 144°
2026-04-23 14:21 31.14965 -115.21918 34977 ft 490 kts 144°
2026-04-23 14:21 31.12619 -115.19060 35299 ft 489 kts 145°
2026-04-23 14:22 31.10267 -115.16201 35546 ft 489 kts 145°
2026-04-23 14:22 31.07906 -115.13335 35726 ft 490 kts 145°
2026-04-23 14:22 31.05543 -115.10469 35932 ft 491 kts 144°
2026-04-23 14:22 31.03169 -115.07592 36059 ft 493 kts 144°
2026-04-23 14:23 31.00810 -115.04733 36161 ft 496 kts 144°
2026-04-23 14:23 30.98399 -115.01809 36317 ft 497 kts 145°
2026-04-23 14:23 30.96022 -114.98924 36579 ft 496 kts 145°
2026-04-23 14:23 30.93615 -114.96014 36746 ft 497 kts 144°
2026-04-23 14:24 30.88818 -114.90225 36930 ft 501 kts 144°
2026-04-23 14:24 30.83963 -114.84374 36969 ft 503 kts 144°
2026-04-23 14:25 30.79131 -114.78548 36961 ft 500 kts 144°
2026-04-23 14:25 30.74276 -114.72710 36955 ft 501 kts 144°
2026-04-23 14:26 30.69453 -114.66917 36946 ft 501 kts 144°
2026-04-23 14:26 30.64624 -114.61125 36953 ft 500 kts 144°
2026-04-23 14:27 30.59773 -114.55318 36956 ft 500 kts 144°
2026-04-23 14:27 30.54936 -114.49538 36952 ft 500 kts 144°
2026-04-23 14:28 30.50104 -114.43769 36948 ft 500 kts 144°
2026-04-23 14:28 30.45258 -114.37992 36946 ft 500 kts 144°
2026-04-23 14:29 30.40421 -114.32237 36941 ft 500 kts 144°
2026-04-23 14:29 30.35601 -114.26505 36945 ft 498 kts 144°
2026-04-23 14:30 30.30773 -114.20779 36941 ft 498 kts 144°
2026-04-23 14:30 30.25903 -114.15009 36939 ft 498 kts 144°
2026-04-23 14:31 30.21066 -114.09288 36940 ft 500 kts 144°
2026-04-23 14:31 30.16224 -114.03570 36937 ft 499 kts 144°
2026-04-23 14:32 30.11405 -113.97880 36934 ft 497 kts 144°
2026-04-23 14:32 30.06562 -113.92181 36931 ft 498 kts 144°
2026-04-23 14:33 30.01712 -113.86478 36934 ft 498 kts 144°
2026-04-23 14:33 29.96864 -113.80784 36934 ft 498 kts 144°
2026-04-23 14:34 29.92016 -113.75095 36940 ft 497 kts 144°
2026-04-23 14:34 29.87193 -113.69450 36943 ft 497 kts 144°
2026-04-23 14:35 29.82320 -113.63752 36942 ft 499 kts 143°
2026-04-23 14:35 29.77552 -113.57928 36941 ft 503 kts 140°
2026-04-23 14:36 29.72913 -113.51934 36944 ft 501 kts 140°
2026-04-23 14:36 29.68318 -113.45997 36943 ft 501 kts 140°
2026-04-23 14:37 29.63687 -113.40031 36944 ft 502 kts 140°
2026-04-23 14:37 29.59043 -113.34058 36939 ft 501 kts 141°
2026-04-23 14:38 29.54394 -113.28088 36939 ft 500 kts 140°
2026-04-23 14:38 29.49766 -113.22158 36930 ft 500 kts 140°
2026-04-23 14:39 29.45108 -113.16200 36922 ft 500 kts 140°
2026-04-23 14:39 29.40489 -113.10297 36923 ft 500 kts 140°
2026-04-23 14:40 29.35844 -113.04373 36920 ft 500 kts 140°
2026-04-23 14:40 29.31212 -112.98469 36914 ft 500 kts 140°
2026-04-23 14:41 29.26575 -112.92567 36914 ft 499 kts 140°
2026-04-23 14:41 29.21923 -112.86662 36915 ft 500 kts 140°
2026-04-23 14:42 29.17243 -112.80727 36915 ft 501 kts 140°
2026-04-23 14:42 29.12588 -112.74831 36914 ft 502 kts 140°
2026-04-23 14:43 29.07924 -112.68932 36914 ft 502 kts 140°
2026-04-23 14:43 29.03242 -112.63017 36916 ft 502 kts 140°
2026-04-23 14:44 28.98565 -112.57120 36922 ft 503 kts 140°
2026-04-23 14:44 28.93875 -112.51212 36925 ft 501 kts 140°
2026-04-23 14:45 28.89196 -112.45328 36927 ft 502 kts 140°
2026-04-23 14:45 28.84520 -112.39455 36938 ft 501 kts 140°
2026-04-23 14:46 28.79832 -112.33582 36939 ft 501 kts 140°
2026-04-23 14:46 28.75156 -112.27726 36941 ft 501 kts 140°
2026-04-23 14:47 28.70478 -112.21879 36938 ft 501 kts 140°
2026-04-23 14:47 28.65780 -112.16012 36937 ft 499 kts 140°
2026-04-23 14:48 28.61098 -112.10176 36937 ft 500 kts 140°
2026-04-23 14:48 28.56443 -112.04384 36938 ft 500 kts 140°
2026-04-23 14:49 28.51767 -111.98568 36937 ft 499 kts 140°
2026-04-23 14:49 28.47069 -111.92739 36934 ft 500 kts 140°
2026-04-23 14:50 28.42384 -111.86930 36934 ft 499 kts 139°
2026-04-23 14:50 28.37693 -111.81122 36935 ft 499 kts 140°
2026-04-23 14:51 28.33015 -111.75340 36935 ft 500 kts 139°
2026-04-23 14:51 28.28320 -111.69546 36935 ft 499 kts 139°
2026-04-23 14:52 28.23624 -111.63757 36935 ft 499 kts 139°
2026-04-23 14:52 28.18950 -111.58005 36936 ft 499 kts 139°
2026-04-23 14:53 28.14222 -111.52194 36934 ft 500 kts 139°
2026-04-23 14:53 28.09539 -111.46446 36933 ft 499 kts 139°
2026-04-23 14:54 28.04828 -111.40672 36936 ft 500 kts 139°
2026-04-23 14:54 28.00117 -111.34904 36935 ft 499 kts 139°
2026-04-23 14:55 27.95389 -111.29121 36936 ft 498 kts 140°
2026-04-23 14:55 27.90686 -111.23383 36935 ft 498 kts 139°
2026-04-23 14:56 27.86009 -111.17680 36937 ft 497 kts 139°
2026-04-23 14:56 27.81314 -111.11969 36938 ft 498 kts 139°
2026-04-23 14:57 27.76580 -111.06216 36937 ft 499 kts 139°
2026-04-23 14:57 27.71865 -111.00488 36938 ft 499 kts 139°
2026-04-23 14:58 27.67172 -110.94800 36938 ft 498 kts 139°
2026-04-23 14:58 27.62445 -110.89076 36938 ft 499 kts 139°
2026-04-23 14:59 27.57722 -110.83365 36938 ft 497 kts 139°
2026-04-23 14:59 27.53001 -110.77665 36937 ft 498 kts 139°
2026-04-23 15:00 27.48294 -110.71990 36938 ft 497 kts 139°
2026-04-23 15:00 27.43580 -110.66315 36937 ft 497 kts 139°
2026-04-23 15:01 27.38870 -110.60648 36936 ft 498 kts 139°
2026-04-23 15:01 27.34146 -110.54975 36938 ft 497 kts 139°
2026-04-23 15:02 27.29392 -110.49272 36940 ft 498 kts 139°
2026-04-23 15:02 27.24657 -110.43603 36940 ft 498 kts 139°
2026-04-23 15:03 27.19929 -110.37949 36940 ft 498 kts 138°
2026-04-23 15:03 27.15198 -110.32296 36936 ft 497 kts 139°
2026-04-23 15:04 27.10446 -110.26627 36939 ft 497 kts 139°
2026-04-23 15:04 27.05724 -110.21003 36938 ft 497 kts 139°
2026-04-23 15:05 27.00994 -110.15372 36936 ft 497 kts 139°
2026-04-23 15:05 26.96222 -110.09705 36936 ft 498 kts 139°
2026-04-23 15:06 26.91490 -110.04089 36935 ft 498 kts 138°
2026-04-23 15:06 26.86698 -109.98410 36935 ft 498 kts 138°
2026-04-23 15:07 26.81952 -109.92792 36937 ft 498 kts 138°
2026-04-23 15:07 26.77190 -109.87163 36937 ft 498 kts 138°
2026-04-23 15:08 26.72453 -109.81570 36931 ft 497 kts 138°
2026-04-23 15:09 26.65309 -109.73151 36930 ft 497 kts 138°
2026-04-23 15:09 26.60543 -109.67544 36936 ft 498 kts 137°
2026-04-23 15:10 26.55800 -109.61971 36934 ft 498 kts 137°
2026-04-23 15:10 26.51051 -109.56394 36934 ft 497 kts 137°
2026-04-23 15:11 26.46278 -109.50801 36933 ft 496 kts 137°
2026-04-23 15:11 26.41528 -109.45242 36934 ft 496 kts 137°
2026-04-23 15:12 26.36761 -109.39668 36934 ft 495 kts 137°
2026-04-23 15:12 26.32026 -109.34140 36932 ft 495 kts 138°
2026-04-23 15:13 26.27282 -109.28607 36934 ft 495 kts 138°
2026-04-23 15:13 26.22497 -109.23035 36935 ft 495 kts 137°
2026-04-23 15:14 26.17763 -109.17528 36936 ft 495 kts 137°
2026-04-23 15:14 26.12997 -109.11988 36938 ft 494 kts 137°
2026-04-23 15:15 26.08249 -109.06477 36939 ft 493 kts 137°
2026-04-23 15:15 26.03504 -109.00983 36942 ft 494 kts 137°
2026-04-23 15:16 25.98736 -108.95462 36946 ft 495 kts 137°
2026-04-23 15:16 25.93973 -108.89960 36946 ft 494 kts 137°
2026-04-23 15:17 25.89211 -108.84463 36946 ft 494 kts 137°
2026-04-23 15:17 25.84470 -108.78992 36945 ft 493 kts 137°
2026-04-23 15:18 25.79713 -108.73512 36946 ft 492 kts 137°
2026-04-23 15:18 25.74969 -108.68058 36942 ft 493 kts 137°
2026-04-23 15:19 25.70219 -108.62600 36944 ft 493 kts 137°
2026-04-23 15:19 25.65462 -108.57142 36942 ft 493 kts 137°
2026-04-23 15:20 25.60680 -108.51662 36947 ft 493 kts 137°
2026-04-23 15:20 25.55935 -108.46230 36948 ft 492 kts 137°
2026-04-23 15:21 25.51177 -108.40791 36948 ft 492 kts 137°
2026-04-23 15:21 25.46443 -108.35387 36948 ft 492 kts 137°
2026-04-23 15:22 25.41663 -108.29937 36952 ft 492 kts 137°
2026-04-23 15:22 25.36904 -108.24513 36955 ft 492 kts 137°
2026-04-23 15:23 25.32134 -108.19087 36955 ft 492 kts 137°
2026-04-23 15:23 25.27391 -108.13696 36958 ft 491 kts 137°
2026-04-23 15:24 25.22638 -108.08302 36957 ft 491 kts 137°
2026-04-23 15:24 25.17857 -108.02884 36959 ft 491 kts 137°
2026-04-23 15:25 25.13114 -107.97512 36961 ft 491 kts 137°
2026-04-23 15:25 25.08359 -107.92133 36961 ft 491 kts 137°
2026-04-23 15:26 25.03572 -107.86728 36962 ft 491 kts 137°
2026-04-23 15:26 24.98819 -107.81364 36960 ft 491 kts 137°
2026-04-23 15:27 24.94026 -107.75964 36959 ft 491 kts 137°
2026-04-23 15:27 24.89247 -107.70584 36960 ft 491 kts 137°
2026-04-23 15:28 24.84491 -107.65237 36963 ft 491 kts 137°
2026-04-23 15:28 24.79705 -107.59861 36966 ft 491 kts 137°
2026-04-23 15:29 24.74918 -107.54494 36965 ft 491 kts 137°
2026-04-23 15:29 24.70140 -107.49139 36967 ft 491 kts 137°
2026-04-23 15:30 24.65366 -107.43797 36967 ft 491 kts 137°
2026-04-23 15:30 24.60559 -107.38427 36964 ft 492 kts 136°
2026-04-23 15:31 24.55747 -107.33052 36960 ft 491 kts 137°
2026-04-23 15:31 24.50953 -107.27706 36960 ft 492 kts 137°
2026-04-23 15:32 24.46162 -107.22371 36960 ft 491 kts 137°
2026-04-23 15:32 24.41373 -107.17041 36959 ft 491 kts 137°
2026-04-23 15:33 24.36581 -107.11716 36958 ft 491 kts 137°
2026-04-23 15:33 24.31796 -107.06405 36960 ft 491 kts 137°
2026-04-23 15:34 24.26969 -107.01054 36964 ft 492 kts 137°
2026-04-23 15:34 24.22168 -106.95737 36964 ft 492 kts 137°
2026-04-23 15:35 24.17370 -106.90430 36961 ft 492 kts 137°
2026-04-23 15:35 24.12546 -106.85097 36966 ft 492 kts 137°
2026-04-23 15:36 24.07752 -106.79807 36971 ft 492 kts 137°
2026-04-23 15:36 24.02918 -106.74478 36975 ft 492 kts 137°
2026-04-23 15:37 23.98096 -106.69168 36972 ft 492 kts 136°
2026-04-23 15:37 23.93292 -106.63886 36970 ft 492 kts 136°
2026-04-23 15:38 23.88463 -106.58580 36978 ft 492 kts 136°
2026-04-23 15:38 23.83632 -106.53275 36990 ft 492 kts 136°
2026-04-23 15:39 23.78803 -106.47982 37006 ft 492 kts 136°
2026-04-23 15:39 23.73989 -106.42713 37017 ft 492 kts 136°
2026-04-23 15:40 23.69171 -106.37444 37021 ft 492 kts 136°
2026-04-23 15:40 23.64319 -106.32141 37020 ft 492 kts 136°
2026-04-23 15:41 23.59496 -106.26879 37017 ft 492 kts 136°
2026-04-23 15:41 23.54668 -106.21615 37013 ft 492 kts 136°
2026-04-23 15:42 23.49825 -106.16340 37013 ft 492 kts 136°
2026-04-23 15:42 23.44983 -106.11074 37013 ft 492 kts 136°
2026-04-23 15:43 23.40131 -106.05802 37023 ft 493 kts 136°
2026-04-23 15:43 23.35290 -106.00545 37019 ft 492 kts 136°
2026-04-23 15:44 23.30447 -105.95294 37016 ft 492 kts 136°
2026-04-23 15:44 23.25614 -105.90062 37025 ft 492 kts 136°
2026-04-23 15:45 23.20770 -105.84822 37036 ft 491 kts 136°
2026-04-23 15:45 23.15914 -105.79573 37029 ft 491 kts 136°
2026-04-23 15:46 23.11084 -105.74359 37034 ft 491 kts 136°
2026-04-23 15:46 23.06255 -105.69153 37032 ft 492 kts 136°
2026-04-23 15:47 23.01411 -105.63937 37018 ft 491 kts 136°
2026-04-23 15:47 22.96562 -105.58717 37014 ft 491 kts 136°
2026-04-23 15:48 22.91704 -105.53497 37020 ft 491 kts 136°
2026-04-23 15:48 22.86854 -105.48289 37021 ft 491 kts 135°
2026-04-23 15:49 22.81985 -105.43067 37028 ft 491 kts 135°
2026-04-23 15:49 22.77126 -105.37858 37042 ft 491 kts 135°
2026-04-23 15:50 22.72265 -105.32656 37060 ft 490 kts 136°
2026-04-23 15:50 22.67432 -105.27484 37069 ft 490 kts 136°
2026-04-23 15:51 22.62604 -105.22326 37071 ft 490 kts 136°
2026-04-23 15:51 22.57719 -105.17113 37068 ft 491 kts 135°
2026-04-23 15:52 22.52877 -105.11948 37059 ft 490 kts 135°
2026-04-23 15:52 22.48023 -105.06775 37046 ft 490 kts 135°
2026-04-23 15:53 22.43489 -105.01304 37039 ft 490 kts 127°
2026-04-23 15:53 22.39607 -104.95304 37058 ft 489 kts 121°
2026-04-23 15:54 22.35975 -104.89070 37106 ft 489 kts 121°
2026-04-23 15:54 22.32359 -104.82875 37146 ft 489 kts 121°
2026-04-23 15:55 22.28737 -104.76705 37198 ft 488 kts 121°
2026-04-23 15:55 22.25092 -104.70515 37219 ft 488 kts 121°
2026-04-23 15:56 22.21452 -104.64342 37167 ft 487 kts 121°
2026-04-23 15:56 22.17809 -104.58173 37133 ft 488 kts 121°
2026-04-23 15:57 22.14179 -104.52033 37097 ft 488 kts 121°
2026-04-23 15:57 22.10531 -104.45866 37096 ft 488 kts 121°
2026-04-23 15:58 22.06873 -104.39694 37118 ft 487 kts 121°
2026-04-23 15:58 22.03225 -104.33547 37125 ft 487 kts 121°
2026-04-23 15:59 21.99577 -104.27404 37125 ft 486 kts 121°
2026-04-23 15:59 21.95936 -104.21279 37166 ft 486 kts 121°
2026-04-23 16:00 21.92314 -104.15196 37208 ft 485 kts 121°
2026-04-23 16:00 21.88644 -104.09031 37247 ft 485 kts 121°
2026-04-23 16:01 21.85016 -104.02948 37275 ft 485 kts 121°
2026-04-23 16:01 21.81368 -103.96839 37260 ft 484 kts 121°
2026-04-23 16:01 21.79556 -103.93807 36836 ft 485 kts 121°
2026-04-23 16:02 21.77717 -103.90726 35880 ft 489 kts 121°
2026-04-23 16:02 21.75875 -103.87643 34777 ft 495 kts 121°
2026-04-23 16:02 21.74020 -103.84543 33727 ft 499 kts 122°
2026-04-23 16:02 21.72147 -103.81416 32731 ft 503 kts 122°
2026-04-23 16:03 21.70248 -103.78249 31761 ft 506 kts 122°
2026-04-23 16:03 21.68352 -103.75091 30781 ft 505 kts 122°
2026-04-23 16:03 21.66464 -103.71950 29399 ft 502 kts 122°
2026-04-23 16:03 21.64300 -103.69071 27848 ft 501 kts 137°
2026-04-23 16:04 21.61478 -103.66976 26876 ft 482 kts 155°
2026-04-23 16:04 21.58433 -103.65756 26500 ft 461 kts 164°
2026-04-23 16:04 21.55390 -103.64773 26059 ft 456 kts 165°
2026-04-23 16:04 21.52313 -103.63802 25577 ft 452 kts 165°
2026-04-23 16:05 21.49329 -103.62852 25101 ft 451 kts 165°
2026-04-23 16:05 21.46333 -103.61882 24599 ft 447 kts 165°
2026-04-23 16:05 21.43364 -103.60909 24092 ft 444 kts 165°
2026-04-23 16:05 21.40419 -103.59941 23589 ft 440 kts 165°
2026-04-23 16:06 21.37514 -103.58985 23092 ft 436 kts 165°
2026-04-23 16:06 21.34624 -103.57944 22568 ft 434 kts 158°
2026-04-23 16:06 21.32109 -103.56193 22065 ft 433 kts 138°
2026-04-23 16:06 21.30243 -103.53733 21580 ft 429 kts 121°
2026-04-23 16:07 21.28764 -103.50954 21086 ft 427 kts 118°
2026-04-23 16:07 21.27349 -103.48190 20585 ft 424 kts 118°
2026-04-23 16:07 21.25925 -103.45431 20074 ft 422 kts 118°
2026-04-23 16:07 21.24487 -103.42680 19569 ft 420 kts 119°
2026-04-23 16:08 21.23062 -103.39986 19062 ft 417 kts 119°
2026-04-23 16:08 21.21635 -103.37304 18567 ft 415 kts 119°
2026-04-23 16:08 21.20212 -103.34640 18073 ft 412 kts 120°
2026-04-23 16:08 21.18962 -103.32304 17636 ft 410 kts 120°
2026-04-23 16:09 21.17544 -103.29652 17144 ft 407 kts 120°
2026-04-23 16:09 21.16155 -103.27058 16657 ft 404 kts 120°
2026-04-23 16:09 21.14750 -103.24438 16177 ft 401 kts 120°
2026-04-23 16:09 21.13384 -103.21879 15956 ft 390 kts 120°
2026-04-23 16:10 21.12061 -103.19392 15992 ft 389 kts 120°
2026-04-23 16:10 21.10613 -103.16948 16030 ft 388 kts 126°
2026-04-23 16:10 21.08912 -103.14695 16068 ft 388 kts 133°
2026-04-23 16:10 21.07018 -103.12624 16093 ft 389 kts 136°
2026-04-23 16:11 21.05070 -103.10593 16106 ft 389 kts 136°
2026-04-23 16:11 21.03111 -103.08565 16107 ft 390 kts 136°
2026-04-23 16:11 21.01183 -103.06564 16106 ft 389 kts 136°
2026-04-23 16:11 20.99242 -103.04538 16105 ft 390 kts 136°
2026-04-23 16:12 20.97301 -103.02508 16098 ft 390 kts 136°
2026-04-23 16:12 20.95362 -103.00475 16084 ft 390 kts 136°
2026-04-23 16:12 20.93416 -102.98437 15945 ft 392 kts 136°
2026-04-23 16:12 20.91467 -102.96394 15384 ft 392 kts 136°
2026-04-23 16:13 20.89512 -102.94349 14846 ft 391 kts 136°
2026-04-23 16:13 20.85659 -102.90321 13851 ft 385 kts 136°
2026-04-23 16:13 20.83757 -102.88333 13375 ft 381 kts 136°
2026-04-23 16:14 20.81891 -102.86382 13125 ft 370 kts 136°
2026-04-23 16:14 20.80066 -102.84476 13108 ft 361 kts 136°
2026-04-23 16:14 20.78276 -102.82606 13106 ft 355 kts 136°
2026-04-23 16:14 20.76552 -102.80807 13098 ft 338 kts 136°
2026-04-23 16:15 20.74903 -102.79109 13041 ft 323 kts 140°
2026-04-23 16:15 20.73000 -102.77966 12734 ft 313 kts 168°
2026-04-23 16:15 20.70876 -102.77943 12430 ft 302 kts 195°
2026-04-23 16:15 20.68968 -102.78813 12131 ft 293 kts 216°
2026-04-23 16:16 20.67358 -102.80115 11853 ft 287 kts 220°
2026-04-23 16:16 20.65796 -102.81421 11588 ft 282 kts 219°
2026-04-23 16:16 20.64255 -102.82681 11343 ft 276 kts 219°
2026-04-23 16:16 20.62755 -102.83884 11107 ft 270 kts 218°
2026-04-23 16:17 20.61244 -102.85080 10870 ft 269 kts 218°
2026-04-23 16:17 20.59723 -102.86275 10637 ft 269 kts 218°
2026-04-23 16:17 20.58214 -102.87452 10408 ft 269 kts 218°
2026-04-23 16:17 20.56705 -102.88625 10178 ft 268 kts 218°
2026-04-23 16:18 20.55194 -102.89799 9995 ft 267 kts 218°
2026-04-23 16:18 20.53686 -102.90969 9879 ft 267 kts 218°
2026-04-23 16:18 20.52193 -102.92124 9760 ft 266 kts 218°
2026-04-23 16:18 20.50685 -102.93292 9649 ft 266 kts 218°
2026-04-23 16:19 20.49189 -102.94452 9531 ft 266 kts 218°
2026-04-23 16:19 20.47689 -102.95615 9412 ft 265 kts 218°
2026-04-23 16:19 20.46188 -102.96777 9293 ft 265 kts 218°
2026-04-23 16:19 20.44694 -102.97933 9166 ft 265 kts 218°
2026-04-23 16:20 20.43210 -102.99081 9111 ft 264 kts 217°
2026-04-23 16:20 20.41743 -103.00292 9086 ft 259 kts 229°
2026-04-23 16:20 20.40896 -103.01882 9060 ft 240 kts 259°
2026-04-23 16:20 20.40846 -103.03567 9217 ft 222 kts 277°
2026-04-23 16:21 20.41224 -103.05083 9197 ft 202 kts 290°
2026-04-23 16:21 20.41761 -103.06409 9016 ft 187 kts 294°
2026-04-23 16:21 20.42293 -103.07608 8822 ft 172 kts 295°
2026-04-23 16:21 20.42784 -103.08719 8601 ft 160 kts 294°
2026-04-23 16:22 20.43243 -103.09779 8416 ft 158 kts 294°
2026-04-23 16:22 20.43697 -103.10844 8235 ft 157 kts 294°
2026-04-23 16:22 20.44142 -103.11903 8058 ft 157 kts 294°
2026-04-23 16:22 20.44586 -103.12964 7883 ft 156 kts 294°
2026-04-23 16:23 20.45027 -103.14022 7701 ft 156 kts 294°
2026-04-23 16:23 20.45469 -103.15084 7527 ft 155 kts 294°
2026-04-23 16:23 20.45907 -103.16135 7347 ft 155 kts 294°
2026-04-23 16:23 20.46343 -103.17181 7167 ft 154 kts 294°
2026-04-23 16:24 20.46778 -103.18225 6987 ft 154 kts 294°
2026-04-23 16:24 20.47214 -103.19267 6807 ft 153 kts 294°
2026-04-23 16:24 20.47653 -103.20316 6624 ft 153 kts 294°
2026-04-23 16:24 20.48087 -103.21352 6442 ft 152 kts 294°
2026-04-23 16:25 20.48516 -103.22375 6265 ft 152 kts 294°
2026-04-23 16:25 20.48948 -103.23406 6089 ft 152 kts 294°
2026-04-23 16:25 20.49376 -103.24429 5914 ft 151 kts 294°
2026-04-23 16:25 20.49810 -103.25462 5736 ft 151 kts 294°
2026-04-23 16:26 20.50233 -103.26470 5562 ft 150 kts 294°
2026-04-23 16:26 20.50661 -103.27490 5386 ft 150 kts 294°
2026-04-23 16:26 20.51085 -103.28502 5216 ft 149 kts 294°
2026-04-23 16:26 20.51508 -103.29516 5045 ft 147 kts 294°
2026-04-23 16:27 20.51901 -103.30458 5032 ft 122 kts 294°
2026-04-23 16:27 20.52158 -103.31062 5035 ft 74 kts 293°
2026-04-23 16:27 20.52341 -103.31442 5035 ft 43 kts 314°
2026-04-23 16:27 20.52469 -103.31567 5034 ft 17 kts 323°
2026-04-23 16:28 20.52586 -103.31580 5033 ft 17 kts 27°
2026-04-23 16:28 20.52695 -103.31522 5032 ft 17 kts 26°
2026-04-23 16:28 20.52755 -103.31429 5031 ft 16 kts 98°
2026-04-23 16:28 20.52710 -103.31325 5032 ft 15 kts 118°
2026-04-23 16:29 20.52663 -103.31223 5032 ft 14 kts 115°
2026-04-23 16:29 20.52620 -103.31124 5032 ft 14 kts 115°
2026-04-23 16:29 20.52575 -103.31024 5032 ft 14 kts 115°
2026-04-23 16:29 20.52530 -103.30921 5031 ft 15 kts 115°
2026-04-23 16:30 20.52486 -103.30821 5031 ft 15 kts 115°
2026-04-23 16:30 20.52444 -103.30715 5030 ft 15 kts 107°
2026-04-23 16:30 20.52412 -103.30610 5030 ft 15 kts 108°
2026-04-23 16:30 20.52374 -103.30502 5030 ft 15 kts 111°
2026-04-23 16:31 20.52358 -103.30437 5029 ft 3 kts 41°
2026-04-23 16:31 20.52384 -103.30417 5029 ft 5 kts 36°
2026-04-23 16:31 20.52417 -103.30392 5029 ft 6 kts 36°
2026-04-23 16:31 20.52460 -103.30361 5029 ft 7 kts 31°
2026-04-23 16:32 20.52503 -103.30339 5029 ft 6 kts 17°
2026-04-23 16:32 20.52506 -103.30338 5029 ft 0 kts 17°